Regional Weather Roundup
Issued by NWS

Home | Current Version | Previous Version | Text Only | Print | Product List | Glossary On
Versions: 1 2 3 4 5 6 7 8 9 10 11 12 13 14 15 16 17 18 19 20 21 22 23 24 25 26 27 28 29 30 31 32 33 34 35 36 37 38 39 40 41 42 43 44 45 46 47 48 49 50
914
ASUS43 KLOT 221321
RWRIL

ILLINOIS REGIONAL WEATHER ROUNDUP
NATIONAL WEATHER SERVICE CHICAGO/ROMEOVILLE IL
800 AM CDT FRI MAY 22 2015

NOTE: "FAIR" INDICATES FEW OR NO CLOUDS BELOW 12,000 FEET WITH NO
SIGNIFICANT WEATHER AND/OR OBSTRUCTIONS TO VISIBILITY.

* THESE STATIONS ARE NOT UNDER NWS QUALITY CONTROL. THEY ALSO MAY NOT
  REPORT WEATHER SUCH AS PRECIPITATION OR FOG.

ILZ001-002-007-009-015-016-024-221400-
NORTHWEST ILLINOIS

CITY           SKY/WX    TMP DP  RH WIND       PRES   REMARKS
MOLINE         SUNNY     57  44  62 CALM      30.17R
STERLING*      SUNNY     57  45  62 E6        30.18R
SAVANNA*       SUNNY     55  44  67 CALM      30.18R
$$

ILZ003-004-008-010-011-017-018-221400-
NORTH CENTRAL ILLINOIS

CITY           SKY/WX    TMP DP  RH WIND       PRES   REMARKS
ROCKFORD       SUNNY     55  35  47 E7        30.21R
FREEPORT*      SUNNY     51  40  65 NE5       30.21R
ROCHELLE*      SUNNY     54  42  66 E7        30.18R
DE KALB*       SUNNY     53  39  59 E7        30.19R
PERU*          SUNNY     56  46  67 NE6       30.18R
$$

ILZ005-006-012>014-019>023-221400-
NORTHEAST ILLINOIS

CITY           SKY/WX    TMP DP  RH WIND       PRES   REMARKS
CHICAGO-OHARE  SUNNY     54  38  54 NE9       30.17R
CHICAGO-MIDWAY SUNNY     57  43  59 NE8       30.16R
AURORA         SUNNY     55  42  61 NE6       30.17R
LANSING*       SUNNY     55  45  68 N3        30.16R
JOLIET*        SUNNY     56  47  70 CALM      30.17R
WAUKEGAN       SUNNY     52  35  52 NE8       30.19R
DUPAGE AIRPORT SUNNY     55  41  59 NE7       30.17R
KANKAKEE*      SUNNY     58  48  70 NW3       30.16R
WHEELING       SUNNY     52  36  54 NE8       30.19R
MORRIS*        SUNNY     55  46  69 CALM      30.14S
ROMEOVILLE*    SUNNY     55  43  63 CALM      30.17R
NORTHERLY ISL    N/A     51  43  74 N10         N/A
$$

LMZ740>746-221400-
SOUTHERN LAKE MICHIGAN

STATION/POSITION SKY/WX   TEMP    WIND        PRES    VSBY  WAVE
                          AIR SEA DIR/SP/G                  HT/PER
                          (F)     (DEG/KT/KT) (MB)    (MI)  (FT/S)
SOUTHERN BUOY              41 38  360/ 10/ 10 1022.9R         1/ 4
HARRISON CRIB              47     350/ 13/ 15   N/A
BURNHAM HARBOR             51     350/  8/  9   N/A
CALUMET HARBOR             50     360/  4/  8   N/A
BURNS HARBOR               51      50/  7/  8 1021.0R
MICHIGAN CITY              55      30/  4/  5   N/A
MICHIGAN CITY 6N           52 51   60/  4/  4   N/A           1
ST. JOSEPH                 55 53  120/ 12/ 14   N/A           1
$$

ILZ025>027-034>036-040-047-049-050-058-095>099-221400-
WEST-CENTRAL ILLINOIS

CITY           SKY/WX    TMP DP  RH WIND       PRES   REMARKS
QUINCY         SUNNY     59  45  59 NW9       30.20R
GALESBURG*     SUNNY     57  47  71 NW5       30.18R
MACOMB*        SUNNY     58  48  70 W7        30.21R
JACKSONVILLE*  SUNNY     61  47  60 W9        30.20R
PITTSFIELD*    SUNNY     60  46  59 W9        30.22R
$$

ILZ028>032-037-038-041>044-048-051>054-059>061-221400-
CENTRAL ILLINOIS

CITY           SKY/WX    TMP DP  RH WIND       PRES   REMARKS
PONTIAC        SUNNY     58  49  71 N6        30.17R
BLOOMINGTON    SUNNY     58  48  69 NW8       30.18R
DECATUR        SUNNY     58  47  66 W12       30.19R
PEORIA         SUNNY     60  46  59 NW3       30.17R
LACON*         SUNNY     56  45  64 CALM      30.16S
LINCOLN*       SUNNY     60  48  65 NW7       30.17R
SPRINGFIELD    SUNNY     59  47  64 W8        30.19R
TAYLORVILLE    SUNNY     55  46  71 W6        30.20S
$$

ILZ033-039-045-046-055>057-062-063-221400-
EAST-CENTRAL ILLINOIS

CITY           SKY/WX    TMP DP  RH WIND       PRES   REMARKS
CHAMPAIGN      SUNNY     58  48  69 W9        30.18R
DANVILLE*      SUNNY     56  47  73 W9        30.14S
RANTOUL*       SUNNY     60  48  66 W12       30.17R
MATTOON        SUNNY     57  46  66 SW8       30.18R
PARIS*         SUNNY     60  47  64 W15       30.19R
$$

ILZ079-100>102-221400-
SOUTHWEST ILLINOIS

CITY           SKY/WX    TMP DP  RH WIND       PRES   REMARKS
ALTON          SUNNY     57  52  82 SW10      30.23R
BELLEVILLE     SUNNY     55  50  82 SW7       30.24R
CAHOKIA*       SUNNY     56  46  69 SW6       30.24R
SPARTA*        SUNNY     54  46  74 SW7       30.27S
$$

ILZ064>066-069>071-074>076-080>082-084>086-088>090-092>094-221400-
SOUTH-CENTRAL ILLINOIS

CITY           SKY/WX    TMP DP  RH WIND       PRES   REMARKS
CARBONDALE     SUNNY     54  47  77 SW8       30.28R
CAIRO*         SUNNY     55  51  87 CALM      30.30R
EFFINGHAM*     SUNNY     56  44  65 SW8       30.22S
MARION         SUNNY     57  50  77 SW9       30.29R
MT. VERNON     SUNNY     55  46  71 SW9       30.26S
CENTRALIA*     SUNNY     61  46  57 SW9       30.24R
SALEM*         SUNNY     56  47  71 SW10      30.23S
METROPOLIS*    SUNNY     54  51  89 W5        30.29S
$$

ILZ067-068-072-073-078-083-087-091-221400-
SOUTHEAST ILLINOIS

CITY           SKY/WX    TMP DP  RH WIND       PRES   REMARKS
LAWRENCEVILLE  SUNNY     57  46  66 SW10      30.22F
FLORA*         SUNNY     54  46  72 SW9       30.23S
FAIRFIELD*     SUNNY     55  48  75 SW8       30.24R
HARRISBURG*    SUNNY     54  50  89 SW6       30.29R
ROBINSON*      SUNNY     55  45  69 SW8       30.22R
CARMI*         SUNNY     56  44  63 SW9       30.27R
$$

ABBREVIATIONS USED IN REMARKS
   TC - TEMPERATURE IN CELSIUS
  WCI - WIND CHILL INDEX
   HX - HEAT INDEX
  VSB - VISIBILITY
$$




USA.gov is the U.S. government's official web portal to all federal, state and local government web resources and services.